{"data":{"norad_id":64545,"intl_designator":"2025-135T","name":"ION SCV-020","alt_names":[],"object_type":"PAYLOAD","status":"ACTIVE","operator":null,"country":"IT","launch_date":"2025-06-23","launch_site_code":"AFWTR","launch_vehicle":null,"mission":null,"orbit_class":"UNKNOWN","rcs_meters":null,"size_class":null,"mass_kg":null,"dimensions":null,"purposes":[],"wikipedia_slug":null,"has_3d_model":false,"image_url":null,"decayed_at":null,"tle_current":{"epoch":"2026-05-24T20:28:18.602112Z","epoch_age_seconds":81615,"freshness":"FRESH","line1":"1 64545U 25135T   26144.85299308  .00002563  00000+0  12462-3 0  9994","line2":"2 64545  97.4610 260.0718 0007469 229.9392 130.1188 15.19300365 51303","mean_motion":15.19300365,"eccentricity":0.0007469,"inclination_deg":97.461,"raan_deg":260.0718,"arg_perigee_deg":229.9392,"mean_anomaly_deg":130.1188,"bstar":0.00012462,"rev_number":5130,"period_min":94.780468245329,"perigee_km":502.81060295281,"apogee_km":513.09704542598,"semimajor_km":6886.0908241894,"source":"CELESTRAK","updated_at":"2026-05-25T13:38:04.584738Z"}}}